FENGYUN 1C DEB, 30266

Orbit data source: Space-Track

FENGYUN 1C DEB, 30266 is space debris in SSO originally from a launch on Mon, 10 May 1999 UTC launched from the Taiyaun Space Center, China (TSC). Fengyun 1C debris stems from the Chinese weather satellite Fengyun-1C, which was intentionally destroyed by a Chinese anti-satellite missile in 2007. This event dramatically increased the amount of space debris, with thousands of trackable fragments posing hazards to satellites and human spaceflight. The Fengyun 1C debris cloud has become a focal point in discussions about space sustainability and the need for international regulations to prevent the creation of new debris.

Loading next visibility...
Identifier
30266, 1999-025YB
Orbit
SSO
Country
Flag of CNCN / PRC
Related business
Manufacturer
Unknown
Mission
Spacecraft
Bus & Motor
Unknown
Mass
Unknown
Launch date (UTC)
1999-05-10 (27 years ago)
Launch vehicle
Unknown
Launch site
Taiyaun Space Center, China (TSC)
Object type
Payload
Rocket body
Debris
Shape & HBR
Unknown shape, 0.1 m
Radar Cross Section
Small (<0.1 m²)

Expand to show TLE details & history
Last TLE update: 18 hours ago

TLE from 18 hours ago
0 FENGYUN 1C DEB
1 30266U 99025YB  25347.70335464  .00003314  00000-0  16757-2 0  9994
2 30266  99.0430  51.9278 0082589  63.3003  58.7314 14.15089192968037
Epoch: 2025-12-13T16:52Z
TLE epoch observation values (Epoch: 2025-12-13T16:52:49.840Z)
Latitude
56.16836°
Longitude
-90.24441°
Altitude
820.735 km
Speed
7.464 km/s
True Right ascension
16h 22m 21s
True Declination
56° 00' 38"
Sunlit
Object was in daylight at epoch
Visualization orbit readout
Latitude
Unknown
Longitude
Unknown
Altitude
Unknown
Speed
Unknown
Apparent Right ascension
Unknown
Apparent Declination
Unknown
Sunlit
N/A
Visualization observer readout
Local Sidereal Time
09:21:48
Azimuth
Unknown
Elevation
Unknown
Doppler factor
Unknown
Orbital elements
Apogee altitude
898.797 km
Perigee altitude
779.583 km
Semi-major axis
7,217.327 km
Eccentricity
0.00826
Inclination
99.043°
RAAN
51.9278°
Arg. of periapsis
63.3003°
True anomaly
59.54466°
Mean anomaly
58.7314°
Eccentric anomaly
59.1376°
Mean motion
3.5398 °/min
Orbital period
101.7 mins
BSTAR
0.0016757
Loading maneuver chart data...
Computing Atmospheric mass density...

Documentation

Showing up to 5 results
|